International Falls, MN

6:06 PM CST on November 23, 2017 (GMT -0600)
Wayside Lane | | Change Station

Elev 1115 ft 48.60 °N, 93.42 °W | Updated 1 minute ago

Clear
Clear
28.1 °F
Feels Like 28 °F
N
0.0
Wind Variable Wind from SE
Gusts 0.0 mph

Today
High -- | Low -- °F
--% Chance of Precip.
Yesterday
High -- | Low -- °F
Precip. -- in
Pressure 29.63 in
Visibility 10.0 miles
Clouds Clear
Windchill 28 °F
Dew Point 23 °F
Humidity 82%
Rainfall 0.00 in
Snow Depth Not available.
7:34 AM 4:25 PM
Waxing Crescent, 25% visible
METAR KINL 232355Z AUTO 14004KT 10SM CLR M02/M06 A2957 RMK AO2 SLP032 T10221061 11006 21033 56041
Pressure 29.63 in
Visibility 10.0 miles
Clouds Clear
Windchill 28 °F
Dew Point 23 °F
Humidity 82%
Rainfall 0.00 in
Snow Depth Not available.
7:34 AM 4:25 PM
Waxing Crescent, 25% visible
METAR KINL 232355Z AUTO 14004KT 10SM CLR M02/M06 A2957 RMK AO2 SLP032 T10221061 11006 21033 56041

Get Severe Weather Alerts

Thanks for signing up!

Be on the lookout for a verification email in your inbox.

You'll start receiving the daily forecast at 6 AM.

×

10-Day Weather Forecast

Almanac

Astronomy

Nov. 23, 2017 Rise Set
Actual Time
Civil Twilight
Nautical Twilight
Astronomical Twilight
Moon
Length of Visible Light
Length of Day
Tomorrow will be .
, % of the Moon is Illuminated

Today's Extremes

State Highs State Lows

Community

WunderPhotos

Category 6

Welcome to Category 6. This is the collective home for Weather Underground's featured writeups by Dr. Jeff Masters (right), Bob Henson (left), Chris Burt, and other regular contributors.

Nearby

Air Quality

  Air Quality AQ Index Pollutant
Not available.

Snow Depth

Station Depth Elevation

Earthquake Activity

City Distance Mag. Time & Date
Minimum magnitude displayed is 2.5.

Coastal Water Temperatures

Place Temperature

Stations

Nearby Weather Stations

Station Location Temp. Windchill Dew Point Humidity Wind Precip. Elev Updated Type
                   

Watches & Warnings

There are currently no watches in effect.